Time,TemperatureF,DewpointF,PressureIn,WindDirection,WindDirectionDegrees,WindSpeedMPH,WindSpeedGustMPH,Humidity,HourlyPrecipIn,Conditions,Clouds,dailyrainin,SoftwareType,DateUTC
2013-01-25 00:03:00,10.0,4.0,30.48,East,84,3.0,7.0,76,0.00,,,0.00,,2013-01-25 05:03:00,
2013-01-25 00:12:00,10.0,4.0,30.48,ENE,72,4.0,10.0,76,0.00,,,0.00,,2013-01-25 05:12:00,
2013-01-25 00:22:00,10.0,4.0,30.48,ENE,72,4.0,10.0,76,0.00,,,0.00,,2013-01-25 05:22:00,
2013-01-25 00:32:00,9.0,3.0,30.47,ENE,67,3.0,11.0,76,0.00,,,0.00,,2013-01-25 05:32:00,
2013-01-25 00:43:00,9.0,3.0,30.47,ENE,67,3.0,11.0,76,0.00,,,0.00,,2013-01-25 05:43:00,
2013-01-25 00:52:00,9.0,3.0,30.47,ENE,64,2.0,8.0,76,0.00,,,0.00,,2013-01-25 05:52:00,
2013-01-25 01:02:00,9.0,3.0,30.47,ENE,57,6.0,10.0,77,0.00,,,0.00,,2013-01-25 06:02:00,
2013-01-25 01:11:00,9.0,3.0,30.47,ENE,57,6.0,10.0,77,0.00,,,0.00,,2013-01-25 06:11:00,
2013-01-25 01:21:00,9.0,4.0,30.46,ENE,69,3.0,6.0,78,0.00,,,0.00,,2013-01-25 06:21:00,
2013-01-25 01:32:00,8.0,3.0,30.46,ENE,63,5.0,10.0,78,0.00,,,0.00,,2013-01-25 06:32:00,
2013-01-25 01:42:00,8.0,3.0,30.46,ENE,63,5.0,10.0,78,0.00,,,0.00,,2013-01-25 06:42:00,
2013-01-25 01:52:00,8.0,3.0,30.46,NE,49,2.0,7.0,80,0.00,,,0.00,,2013-01-25 06:52:00,
2013-01-25 02:02:00,8.0,3.0,30.45,NNE,32,2.0,6.0,80,0.00,,,0.00,,2013-01-25 07:02:00,
2013-01-25 02:11:00,8.0,3.0,30.45,NNE,32,2.0,6.0,80,0.00,,,0.00,,2013-01-25 07:11:00,
2013-01-25 02:22:00,8.0,3.0,30.45,ENE,64,2.0,5.0,80,0.00,,,0.00,,2013-01-25 07:22:00,
2013-01-25 02:32:00,8.0,3.0,30.45,NE,47,1.0,6.0,80,0.00,,,0.00,,2013-01-25 07:32:00,
2013-01-25 02:42:00,8.0,3.0,30.45,NE,47,1.0,6.0,80,0.00,,,0.00,,2013-01-25 07:42:00,
2013-01-25 02:52:00,8.0,3.0,30.45,ENE,65,2.0,6.0,80,0.00,,,0.00,,2013-01-25 07:52:00,
2013-01-25 03:02:00,8.0,3.0,30.45,ENE,65,0.0,4.0,80,0.00,,,0.00,,2013-01-25 08:02:00,
2013-01-25 03:12:00,9.0,4.0,30.45,East,84,1.0,5.0,81,0.00,,,0.00,,2013-01-25 08:12:00,
2013-01-25 03:21:00,9.0,4.0,30.45,East,84,1.0,5.0,81,0.00,,,0.00,,2013-01-25 08:21:00,
2013-01-25 03:32:00,9.0,4.0,30.46,East,90,2.0,10.0,81,0.00,,,0.00,,2013-01-25 08:32:00,
2013-01-25 03:42:00,9.0,4.0,30.46,East,90,2.0,10.0,81,0.00,,,0.00,,2013-01-25 08:42:00,
2013-01-25 03:52:00,9.0,4.0,30.46,ENE,75,2.0,7.0,81,0.00,,,0.00,,2013-01-25 08:52:00,
2013-01-25 04:02:00,9.0,5.0,30.45,NE,56,2.0,5.0,82,0.00,,,0.00,,2013-01-25 09:02:00,
2013-01-25 04:11:00,9.0,5.0,30.45,NE,56,2.0,5.0,82,0.00,,,0.00,,2013-01-25 09:11:00,
2013-01-25 04:21:00,9.0,5.0,30.44,ENE,59,3.0,7.0,82,0.00,,,0.00,,2013-01-25 09:21:00,
2013-01-25 04:32:00,9.0,5.0,30.44,ENE,74,1.0,9.0,82,0.00,,,0.00,,2013-01-25 09:32:00,
2013-01-25 04:42:00,9.0,5.0,30.44,ENE,74,1.0,9.0,82,0.00,,,0.00,,2013-01-25 09:42:00,
2013-01-25 04:52:00,9.0,5.0,30.42,ENE,69,0.0,4.0,82,0.00,,,0.00,,2013-01-25 09:52:00,
2013-01-25 05:02:00,9.0,5.0,30.42,ENE,61,2.0,5.0,82,0.00,,,0.00,,2013-01-25 10:02:00,
2013-01-25 05:12:00,9.0,5.0,30.42,ENE,61,2.0,5.0,82,0.00,,,0.00,,2013-01-25 10:12:00,
2013-01-25 05:21:00,9.0,5.0,30.41,NE,51,2.0,5.0,82,0.00,,,0.00,,2013-01-25 10:21:00,
2013-01-25 05:32:00,9.0,5.0,30.40,NE,45,2.0,5.0,82,0.00,,,0.00,,2013-01-25 10:32:00,
2013-01-25 05:42:00,9.0,5.0,30.40,NE,45,2.0,5.0,82,0.00,,,0.00,,2013-01-25 10:42:00,
2013-01-25 05:52:00,9.0,5.0,30.40,NE,53,2.0,6.0,82,0.00,,,0.00,,2013-01-25 10:52:00,
2013-01-25 06:02:00,9.0,5.0,30.40,ENE,67,2.0,5.0,82,0.00,,,0.00,,2013-01-25 11:02:00,
2013-01-25 06:11:00,9.0,5.0,30.40,ENE,67,2.0,5.0,82,0.00,,,0.00,,2013-01-25 11:11:00,
2013-01-25 06:22:00,9.0,5.0,30.39,ENE,57,2.0,5.0,82,0.00,,,0.00,,2013-01-25 11:22:00,
2013-01-25 06:32:00,9.0,5.0,30.40,ENE,73,2.0,3.0,82,0.00,,,0.00,,2013-01-25 11:32:00,
2013-01-25 06:42:00,9.0,5.0,30.40,ENE,73,2.0,3.0,82,0.00,,,0.00,,2013-01-25 11:42:00,
2013-01-25 06:52:00,8.0,4.0,30.39,ENE,74,2.0,5.0,82,0.00,,,0.00,,2013-01-25 11:52:00,
2013-01-25 07:02:00,8.0,4.0,30.39,NE,46,1.0,5.0,82,0.00,,,0.00,,2013-01-25 12:02:00,
2013-01-25 07:12:00,8.0,4.0,30.39,NE,46,1.0,5.0,82,0.00,,,0.00,,2013-01-25 12:12:00,
2013-01-25 07:22:00,8.0,4.0,30.39,ENE,61,1.0,4.0,82,0.00,,,0.00,,2013-01-25 12:22:00,
2013-01-25 07:32:00,8.0,3.0,30.39,NE,51,1.0,5.0,81,0.00,,,0.00,,2013-01-25 12:32:00,
2013-01-25 07:42:00,8.0,3.0,30.39,NE,51,1.0,5.0,81,0.00,,,0.00,,2013-01-25 12:42:00,
2013-01-25 07:53:00,8.0,3.0,30.38,NE,45,1.0,6.0,81,0.00,,,0.00,,2013-01-25 12:53:00,
2013-01-25 08:02:00,8.0,3.0,30.38,NE,46,1.0,3.0,81,0.00,,,0.00,,2013-01-25 13:02:00,
2013-01-25 08:12:00,8.0,3.0,30.38,NE,46,1.0,3.0,81,0.00,,,0.00,,2013-01-25 13:12:00,
2013-01-25 08:22:00,9.0,4.0,30.36,NE,39,0.0,3.0,81,0.00,,,0.00,,2013-01-25 13:22:00,
2013-01-25 08:32:00,9.0,4.0,30.36,NE,40,0.0,4.0,81,0.00,,,0.00,,2013-01-25 13:32:00,
2013-01-25 08:42:00,9.0,4.0,30.36,NE,40,0.0,4.0,81,0.00,,,0.00,,2013-01-25 13:42:00,
2013-01-25 08:53:00,9.0,4.0,30.36,NE,41,0.0,2.0,81,0.00,,,0.00,,2013-01-25 13:53:00,
2013-01-25 09:03:00,9.0,4.0,30.36,NE,42,0.0,2.0,81,0.00,,,0.00,,2013-01-25 14:03:00,
2013-01-25 09:12:00,9.0,4.0,30.36,NE,42,0.0,2.0,81,0.00,,,0.00,,2013-01-25 14:12:00,
2013-01-25 09:23:00,10.0,5.0,30.35,NE,36,0.0,2.0,80,0.00,,,0.00,,2013-01-25 14:23:00,
2013-01-25 09:33:00,10.0,5.0,30.35,NE,36,0.0,0.0,80,0.00,,,0.00,,2013-01-25 14:33:00,
2013-01-25 09:42:00,10.0,5.0,30.35,NE,36,0.0,0.0,80,0.00,,,0.00,,2013-01-25 14:42:00,
2013-01-25 09:53:00,11.0,6.0,30.35,NE,36,0.0,1.0,79,0.00,,,0.00,,2013-01-25 14:53:00,
2013-01-25 10:02:00,12.0,7.0,30.34,NNE,33,0.0,2.0,79,0.00,,,0.00,,2013-01-25 15:02:00,
2013-01-25 10:12:00,12.0,7.0,30.34,NNE,33,0.0,2.0,79,0.00,,,0.00,,2013-01-25 15:12:00,
2013-01-25 10:22:00,12.0,6.0,30.33,North,351,0.0,2.0,78,0.00,,,0.00,,2013-01-25 15:22:00,
2013-01-25 10:32:00,13.0,7.0,30.33,NNW,340,2.0,3.0,77,0.00,,,0.00,,2013-01-25 15:32:00,
2013-01-25 10:42:00,13.0,7.0,30.33,NNW,340,2.0,3.0,77,0.00,,,0.00,,2013-01-25 15:42:00,
2013-01-25 10:53:00,13.0,7.0,30.31,NNW,337,2.0,3.0,76,0.00,,,0.00,,2013-01-25 15:53:00,
2013-01-25 11:03:00,13.0,7.0,30.32,NNW,334,1.0,4.0,77,0.00,,,0.00,,2013-01-25 16:03:00,
2013-01-25 11:12:00,13.0,7.0,30.32,NNW,334,1.0,4.0,77,0.00,,,0.00,,2013-01-25 16:12:00,
2013-01-25 11:23:00,13.0,7.0,30.29,NW,320,1.0,3.0,76,0.00,,,0.00,,2013-01-25 16:23:00,
2013-01-25 11:33:00,14.0,8.0,30.29,NW,307,1.0,3.0,76,0.00,,,0.00,,2013-01-25 16:33:00,
2013-01-25 11:43:00,14.0,8.0,30.29,NW,307,1.0,3.0,76,0.00,,,0.00,,2013-01-25 16:43:00,
2013-01-25 11:53:00,14.0,8.0,30.27,WNW,284,2.0,4.0,76,0.00,,,0.00,,2013-01-25 16:53:00,
2013-01-25 12:02:00,14.0,8.0,30.27,WNW,288,2.0,5.0,75,0.00,,,0.00,,2013-01-25 17:02:00,
2013-01-25 12:12:00,14.0,8.0,30.27,WNW,288,2.0,5.0,75,0.00,,,0.00,,2013-01-25 17:12:00,
2013-01-25 12:22:00,14.0,8.0,30.25,WNW,291,2.0,4.0,75,0.00,,,0.00,,2013-01-25 17:22:00,
2013-01-25 12:33:00,14.0,7.0,30.24,WNW,286,1.0,9.0,74,0.00,,,0.00,,2013-01-25 17:33:00,
2013-01-25 12:43:00,14.0,7.0,30.24,WNW,286,1.0,9.0,74,0.00,,,0.00,,2013-01-25 17:43:00,
2013-01-25 12:53:00,14.0,7.0,30.23,WNW,294,0.0,4.0,74,0.00,,,0.00,,2013-01-25 17:53:00,
2013-01-25 13:03:00,15.0,8.0,30.22,NW,311,1.0,6.0,73,0.00,,,0.00,,2013-01-25 18:03:00,
2013-01-25 13:12:00,15.0,8.0,30.22,NW,311,1.0,6.0,73,0.00,,,0.00,,2013-01-25 18:12:00,
2013-01-25 13:23:00,15.0,8.0,30.21,West,275,4.0,7.0,73,0.00,,,0.00,,2013-01-25 18:23:00,
2013-01-25 13:33:00,15.0,8.0,30.20,WNW,299,1.0,7.0,74,0.00,,,0.00,,2013-01-25 18:33:00,
2013-01-25 13:42:00,15.0,8.0,30.20,WNW,299,1.0,7.0,74,0.00,,,0.00,,2013-01-25 18:42:00,
2013-01-25 13:52:00,15.0,8.0,30.19,NW,319,0.0,5.0,73,0.00,,,0.00,,2013-01-25 18:52:00,
2013-01-25 14:03:00,16.0,9.0,30.19,NW,313,2.0,4.0,72,0.00,,,0.00,,2013-01-25 19:03:00,
2013-01-25 14:12:00,16.0,9.0,30.19,NW,313,2.0,4.0,72,0.00,,,0.00,,2013-01-25 19:12:00,
2013-01-25 14:22:00,16.0,8.0,30.17,WNW,290,1.0,5.0,70,0.00,,,0.00,,2013-01-25 19:22:00,
2013-01-25 14:32:00,16.0,8.0,30.17,West,279,2.0,5.0,70,0.00,,,0.00,,2013-01-25 19:32:00,
2013-01-25 14:42:00,16.0,8.0,30.17,West,279,2.0,5.0,70,0.00,,,0.00,,2013-01-25 19:42:00,
2013-01-25 14:53:00,16.0,8.0,30.16,WNW,286,3.0,5.0,69,0.00,,,0.00,,2013-01-25 19:53:00,
2013-01-25 15:03:00,16.0,8.0,30.15,WNW,282,2.0,9.0,69,0.00,,,0.00,,2013-01-25 20:03:00,
2013-01-25 15:12:00,16.0,8.0,30.15,WNW,282,2.0,9.0,69,0.00,,,0.00,,2013-01-25 20:12:00,
2013-01-25 15:23:00,16.0,7.0,30.15,WNW,292,1.0,8.0,68,0.00,,,0.00,,2013-01-25 20:23:00,
2013-01-25 15:32:00,16.0,7.0,30.14,WNW,296,1.0,5.0,68,0.00,,,0.00,,2013-01-25 20:32:00,
2013-01-25 15:42:00,16.0,7.0,30.14,WNW,296,1.0,5.0,68,0.00,,,0.00,,2013-01-25 20:42:00,
2013-01-25 15:53:00,15.0,8.0,30.13,WNW,290,2.0,6.0,73,0.00,,,0.00,,2013-01-25 20:53:00,
2013-01-25 16:02:00,15.0,8.0,30.13,West,273,1.0,5.0,74,0.00,,,0.00,,2013-01-25 21:02:00,
2013-01-25 16:12:00,15.0,8.0,30.13,West,273,1.0,5.0,74,0.00,,,0.00,,2013-01-25 21:12:00,
2013-01-25 16:23:00,15.0,9.0,30.12,SW,234,2.0,6.0,77,0.00,,,0.00,,2013-01-25 21:23:00,
2013-01-25 16:33:00,14.0,8.0,30.11,West,279,1.0,5.0,78,0.00,,,0.00,,2013-01-25 21:33:00,
2013-01-25 16:42:00,14.0,8.0,30.11,West,279,1.0,5.0,78,0.00,,,0.00,,2013-01-25 21:42:00,
2013-01-25 16:52:00,14.0,9.0,30.11,WNW,284,2.0,5.0,79,0.00,,,0.00,,2013-01-25 21:52:00,
2013-01-25 17:03:00,14.0,9.0,30.11,WNW,284,1.0,7.0,80,0.00,,,0.00,,2013-01-25 22:03:00,
2013-01-25 17:12:00,14.0,9.0,30.11,WNW,284,1.0,7.0,80,0.00,,,0.00,,2013-01-25 22:12:00,
2013-01-25 17:22:00,14.0,9.0,30.11,WNW,287,0.0,2.0,81,0.00,,,0.00,,2013-01-25 22:22:00,
2013-01-25 17:33:00,14.0,10.0,30.10,WNW,287,1.0,3.0,82,0.00,,,0.00,,2013-01-25 22:33:00,
2013-01-25 17:42:00,14.0,10.0,30.10,WNW,287,1.0,3.0,82,0.00,,,0.00,,2013-01-25 22:42:00,
2013-01-25 17:53:00,14.0,10.0,30.10,WNW,286,0.0,3.0,82,0.00,,,0.00,,2013-01-25 22:53:00,
2013-01-25 18:02:00,14.0,10.0,30.10,WNW,286,0.0,3.0,82,0.00,,,0.00,,2013-01-25 23:02:00,
2013-01-25 18:12:00,14.0,10.0,30.10,WNW,286,0.0,3.0,82,0.00,,,0.00,,2013-01-25 23:12:00,
2013-01-25 18:22:00,14.0,10.0,30.09,West,265,0.0,4.0,83,0.00,,,0.00,,2013-01-25 23:22:00,
2013-01-25 18:32:00,14.0,10.0,30.09,West,266,0.0,3.0,83,0.00,,,0.00,,2013-01-25 23:32:00,
2013-01-25 18:42:00,14.0,10.0,30.09,West,266,0.0,3.0,83,0.00,,,0.00,,2013-01-25 23:42:00,
2013-01-25 18:53:00,14.0,10.0,30.09,West,273,1.0,10.0,83,0.00,,,0.00,,2013-01-25 23:53:00,
2013-01-25 19:02:00,13.0,9.0,30.09,West,275,1.0,3.0,83,0.00,,,0.00,,2013-01-26 00:02:00,
2013-01-25 19:11:00,13.0,9.0,30.09,West,275,1.0,3.0,83,0.00,,,0.00,,2013-01-26 00:11:00,
2013-01-25 19:22:00,13.0,9.0,30.09,West,275,0.0,3.0,83,0.00,,,0.00,,2013-01-26 00:22:00,
2013-01-25 19:32:00,13.0,9.0,30.09,West,275,1.0,3.0,83,0.00,,,0.00,,2013-01-26 00:32:00,
2013-01-25 19:42:00,13.0,9.0,30.09,West,275,1.0,3.0,83,0.00,,,0.00,,2013-01-26 00:42:00,
2013-01-25 19:53:00,13.0,9.0,30.09,West,275,0.0,2.0,83,0.00,,,0.00,,2013-01-26 00:53:00,
2013-01-25 20:02:00,13.0,9.0,30.09,West,259,1.0,5.0,83,0.00,,,0.00,,2013-01-26 01:02:00,
2013-01-25 20:12:00,13.0,9.0,30.09,West,259,1.0,5.0,83,0.00,,,0.00,,2013-01-26 01:12:00,
2013-01-25 20:22:00,12.0,8.0,30.08,West,259,0.0,2.0,83,0.00,,,0.00,,2013-01-26 01:22:00,
2013-01-25 20:32:00,12.0,8.0,30.08,West,269,1.0,4.0,83,0.00,,,0.00,,2013-01-26 01:32:00,
2013-01-25 20:42:00,12.0,8.0,30.08,West,269,1.0,4.0,83,0.00,,,0.00,,2013-01-26 01:42:00,
2013-01-25 20:52:00,12.0,8.0,30.08,WSW,254,1.0,4.0,83,0.00,,,0.00,,2013-01-26 01:52:00,
2013-01-25 21:01:00,11.0,7.0,30.08,West,265,2.0,5.0,83,0.00,,,0.00,,2013-01-26 02:01:00,
2013-01-25 21:11:00,11.0,7.0,30.08,West,265,2.0,5.0,83,0.00,,,0.00,,2013-01-26 02:11:00,
2013-01-25 21:22:00,11.0,7.0,30.08,West,265,0.0,2.0,83,0.00,,,0.00,,2013-01-26 02:22:00,
2013-01-25 21:32:00,11.0,7.0,30.08,West,265,0.0,3.0,83,0.00,,,0.00,,2013-01-26 02:32:00,
2013-01-25 21:42:00,11.0,7.0,30.08,West,265,0.0,3.0,83,0.00,,,0.00,,2013-01-26 02:42:00,
2013-01-25 21:52:00,10.0,6.0,30.08,West,265,0.0,3.0,83,0.00,,,0.00,,2013-01-26 02:52:00,
2013-01-25 22:02:00,10.0,6.0,30.08,West,265,0.0,2.0,83,0.00,,,0.00,,2013-01-26 03:02:00,
2013-01-25 22:12:00,10.0,6.0,30.08,West,265,0.0,2.0,83,0.00,,,0.00,,2013-01-26 03:12:00,
2013-01-25 22:22:00,9.0,5.0,30.08,West,265,0.0,2.0,83,0.00,,,0.00,,2013-01-26 03:22:00,
2013-01-25 22:32:00,9.0,5.0,30.08,West,265,0.0,1.0,83,0.00,,,0.00,,2013-01-26 03:32:00,
2013-01-25 22:43:00,9.0,5.0,30.08,West,265,0.0,1.0,83,0.00,,,0.00,,2013-01-26 03:43:00,
2013-01-25 22:52:00,9.0,5.0,30.08,West,265,0.0,1.0,83,0.00,,,0.00,,2013-01-26 03:52:00,
2013-01-25 23:02:00,8.0,4.0,30.08,West,265,0.0,1.0,83,0.00,,,0.00,,2013-01-26 04:02:00,
2013-01-25 23:12:00,8.0,4.0,30.08,West,265,0.0,1.0,83,0.00,,,0.00,,2013-01-26 04:12:00,
2013-01-25 23:21:00,8.0,4.0,30.09,West,265,1.0,2.0,84,0.00,,,0.00,,2013-01-26 04:21:00,
2013-01-25 23:32:00,8.0,4.0,30.09,West,265,0.0,2.0,84,0.00,,,0.00,,2013-01-26 04:32:00,
2013-01-25 23:42:00,8.0,4.0,30.09,West,265,0.0,2.0,84,0.00,,,0.00,,2013-01-26 04:42:00,
2013-01-25 23:52:00,8.0,4.0,30.09,West,265,1.0,3.0,84,0.00,,,0.00,,2013-01-26 04:52:00,